Meteo pe oră la Aadorf

Astăzi, 15 Iunie, Marţi

Timp Temperatura Precipitaţii Vânt Presiune Umiditate
00:00 +15°C° 0 mm 1 m/s 711 mmHg 90%
01:00 +15°C° 0 mm 1 m/s 711 mmHg 92%
02:00 +14°C° 0 mm 1 m/s 710 mmHg 92%
03:00 +14°C° 0 mm 1 m/s 710 mmHg 92%
04:00 +13°C° 0 mm 0 m/s 710 mmHg 92%
05:00 +14°C° 0 mm 0 m/s 711 mmHg 88%
06:00 +16°C° 0 mm 0 m/s 711 mmHg 84%
07:00 +17°C° 0 mm 0 m/s 711 mmHg 80%
08:00 +19°C° 0 mm 0 m/s 711 mmHg 73%
09:00 +23°C° 0 mm 1 m/s 711 mmHg 65%
10:00 +25°C° 0 mm 1 m/s 711 mmHg 58%
11:00 +26°C° 0 mm 1 m/s 711 mmHg 53%
12:00 +27°C° 0 mm 1 m/s 711 mmHg 47%
13:00 +28°C° 0 mm 1 m/s 711 mmHg 42%
14:00 +28°C° 0 mm 1 m/s 711 mmHg 43%
15:00 +28°C° 0 mm 1 m/s 711 mmHg 43%
16:00 +28°C° 0 mm 1 m/s 711 mmHg 43%
17:00 +27°C° 0 mm 1 m/s 711 mmHg 53%
18:00 +25°C° 0 mm 1 m/s 711 mmHg 63%
19:00 +24°C° 0 mm 1 m/s 710 mmHg 73%
20:00 +22°C° 0 mm 1 m/s 710 mmHg 77%
21:00 +20°C° 0 mm 1 m/s 710 mmHg 81%
22:00 +18°C° 0 mm 1 m/s 710 mmHg 84%
23:00 +18°C° 0 mm 1 m/s 710 mmHg 84%

Mâine, 16 Iunie, Miercuri

Timp Temperatura Precipitaţii Vânt Presiune Umiditate
00:00 +16°C° 0 mm 1 m/s 710 mmHg 85%
01:00 +16°C° 0 mm 1 m/s 710 mmHg 85%
02:00 +15°C° 0 mm 1 m/s 709 mmHg 86%
03:00 +15°C° 0 mm 1 m/s 709 mmHg 86%
04:00 +13°C° 0 mm 0 m/s 709 mmHg 87%
05:00 +15°C° 0 mm 0 m/s 709 mmHg 82%
06:00 +16°C° 0 mm 0 m/s 709 mmHg 78%
07:00 +18°C° 0 mm 0 m/s 709 mmHg 74%
08:00 +20°C° 0 mm 0 m/s 709 mmHg 68%
09:00 +24°C° 0 mm 1 m/s 709 mmHg 62%
10:00 +25°C° 0 mm 1 m/s 709 mmHg 56%
11:00 +26°C° 0 mm 1 m/s 709 mmHg 52%
12:00 +28°C° 0 mm 1 m/s 709 mmHg 49%
13:00 +29°C° 0 mm 1 m/s 709 mmHg 45%
14:00 +29°C° 0 mm 1 m/s 709 mmHg 44%
15:00 +29°C° 0 mm 1 m/s 709 mmHg 44%
16:00 +29°C° 0 mm 1 m/s 708 mmHg 44%
17:00 +27°C° 0 mm 1 m/s 708 mmHg 53%
18:00 +26°C° 0 mm 1 m/s 708 mmHg 63%
19:00 +24°C° 0 mm 1 m/s 708 mmHg 73%
20:00 +23°C° 0 mm 1 m/s 708 mmHg 77%
21:00 +21°C° 0 mm 1 m/s 707 mmHg 81%
22:00 +19°C° 0 mm 1 m/s 707 mmHg 85%
23:00 +19°C° 0 mm 1 m/s 707 mmHg 85%

Poimâine, 17 Iunie, Joi

Timp Temperatura Precipitaţii Vânt Presiune Umiditate
00:00 +18°C° 0 mm 1 m/s 708 mmHg 85%
01:00 +18°C° 0 mm 1 m/s 708 mmHg 85%
02:00 +16°C° 0 mm 1 m/s 708 mmHg 85%
03:00 +16°C° 0 mm 1 m/s 707 mmHg 85%
04:00 +16°C° 0 mm 1 m/s 707 mmHg 86%
05:00 +16°C° 0 mm 0 m/s 708 mmHg 83%
06:00 +17°C° 0 mm 0 m/s 708 mmHg 80%
07:00 +18°C° 0 mm 0 m/s 708 mmHg 77%
08:00 +20°C° 0 mm 0 m/s 708 mmHg 71%
09:00 +22°C° 0 mm 0 m/s 709 mmHg 64%
10:00 +24°C° 0 mm 0 m/s 709 mmHg 58%
11:00 +28°C° 0 mm 1 m/s 709 mmHg 54%
12:00 +29°C° 0 mm 1 m/s 708 mmHg 49%
13:00 +30°C° 0 mm 1 m/s 708 mmHg 45%
14:00 +31°C° 0 mm 1 m/s 708 mmHg 44%
15:00 +31°C° 0 mm 2 m/s 708 mmHg 43%
16:00 +31°C° 0 mm 2 m/s 708 mmHg 41%
17:00 +29°C° 0 mm 2 m/s 707 mmHg 51%
18:00 +27°C° 0 mm 2 m/s 707 mmHg 61%
19:00 +26°C° 0 mm 2 m/s 707 mmHg 71%
20:00 +24°C° 0 mm 2 m/s 707 mmHg 76%
21:00 +21°C° 0 mm 2 m/s 706 mmHg 81%
22:00 +19°C° 0 mm 2 m/s 706 mmHg 86%
23:00 +19°C° 0 mm 2 m/s 707 mmHg 87%

18 Iunie, Vineri

Timp Temperatura Precipitaţii Vânt Presiune Umiditate
00:00 +18°C° 0 mm 2 m/s 707 mmHg 88%
01:00 +18°C° 0 mm 3 m/s 708 mmHg 89%
02:00 +18°C° 0.5 mm 2 m/s 708 mmHg 92%
03:00 +17°C° 0.5 mm 2 m/s 708 mmHg 94%
04:00 +17°C° 0.5 mm 2 m/s 708 mmHg 96%
05:00 +17°C° 0.4 mm 2 m/s 708 mmHg 95%
06:00 +19°C° 0.4 mm 1 m/s 709 mmHg 94%
07:00 +20°C° 0.4 mm 1 m/s 709 mmHg 93%
08:00 +20°C° 0 mm 1 m/s 709 mmHg 91%
09:00 +21°C° 0 mm 1 m/s 709 mmHg 88%
10:00 +22°C° 0 mm 1 m/s 709 mmHg 86%
11:00 +24°C° 0 mm 1 m/s 709 mmHg 74%
12:00 +26°C° 0 mm 2 m/s 709 mmHg 63%
13:00 +28°C° 0 mm 2 m/s 709 mmHg 51%
14:00 +28°C° 0 mm 2 m/s 709 mmHg 50%
15:00 +28°C° 0 mm 2 m/s 709 mmHg 50%
16:00 +29°C° 0 mm 2 m/s 709 mmHg 49%
17:00 +27°C° 0 mm 1 m/s 709 mmHg 57%
18:00 +26°C° 0 mm 1 m/s 708 mmHg 66%
19:00 +23°C° 0 mm 0 m/s 708 mmHg 75%
20:00 +21°C° 0.1 mm 0 m/s 709 mmHg 78%
21:00 +22°C° 0.1 mm 1 m/s 709 mmHg 81%
22:00 +20°C° 0.1 mm 1 m/s 709 mmHg 84%
23:00 +20°C° 0.3 mm 1 m/s 709 mmHg 86%

19 Iunie, Sâmbătă

Timp Temperatura Precipitaţii Vânt Presiune Umiditate
00:00 +19°C° 0.3 mm 1 m/s 709 mmHg 88%
01:00 +19°C° 0.3 mm 1 m/s 709 mmHg 91%
02:00 +18°C° 0.3 mm 1 m/s 709 mmHg 92%
03:00 +18°C° 0.3 mm 1 m/s 709 mmHg 93%
04:00 +16°C° 0.3 mm 1 m/s 709 mmHg 94%
05:00 +17°C° 0 mm 0 m/s 709 mmHg 92%
06:00 +18°C° 0 mm 0 m/s 710 mmHg 90%
07:00 +19°C° 0 mm 0 m/s 710 mmHg 88%
08:00 +21°C° 0 mm 0 m/s 710 mmHg 80%
09:00 +24°C° 0 mm 1 m/s 710 mmHg 72%
10:00 +26°C° 0 mm 1 m/s 710 mmHg 63%
11:00 +28°C° 0 mm 2 m/s 709 mmHg 58%
12:00 +29°C° 0 mm 2 m/s 709 mmHg 53%
13:00 +30°C° 0 mm 2 m/s 709 mmHg 48%
14:00 +30°C° 0 mm 2 m/s 708 mmHg 48%
15:00 +30°C° 0 mm 2 m/s 708 mmHg 48%
16:00 +31°C° 0 mm 2 m/s 708 mmHg 49%
17:00 +29°C° 0 mm 2 m/s 707 mmHg 57%
18:00 +28°C° 0 mm 2 m/s 707 mmHg 66%
19:00 +27°C° 0 mm 2 m/s 707 mmHg 75%
20:00 +25°C° 0 mm 1 m/s 706 mmHg 79%
21:00 +23°C° 0 mm 1 m/s 706 mmHg 83%
22:00 +22°C° 0 mm 1 m/s 706 mmHg 86%
23:00 +21°C° 0 mm 1 m/s 706 mmHg 86%

20 Iunie, Duminică

Timp Temperatura Precipitaţii Vânt Presiune Umiditate
00:00 +21°C° 0 mm 1 m/s 706 mmHg 86%
01:00 +20°C° 0 mm 1 m/s 706 mmHg 85%
02:00 +20°C° 0 mm 1 m/s 707 mmHg 87%
03:00 +19°C° 0 mm 1 m/s 707 mmHg 89%
04:00 +19°C° 0 mm 1 m/s 707 mmHg 90%
05:00 +20°C° 0.2 mm 1 m/s 708 mmHg 89%
06:00 +21°C° 0.2 mm 1 m/s 708 mmHg 87%
07:00 +22°C° 0.2 mm 1 m/s 708 mmHg 86%
08:00 +23°C° 0.1 mm 1 m/s 708 mmHg 81%
09:00 +24°C° 0.1 mm 1 m/s 708 mmHg 76%
10:00 +26°C° 0.1 mm 1 m/s 708 mmHg 71%
11:00 +26°C° 0.6 mm 1 m/s 708 mmHg 73%
12:00 +26°C° 0.6 mm 1 m/s 708 mmHg 75%
13:00 +27°C° 0.6 mm 1 m/s 708 mmHg 76%
14:00 +26°C° 1.8 mm 1 m/s 708 mmHg 80%
15:00 +25°C° 1.8 mm 1 m/s 708 mmHg 83%
16:00 +25°C° 1.8 mm 1 m/s 708 mmHg 86%
17:00 +24°C° 1 mm 2 m/s 707 mmHg 88%
18:00 +23°C° 1 mm 2 m/s 707 mmHg 91%
19:00 +21°C° 1 mm 2 m/s 706 mmHg 93%
20:00 +20°C° 7.2 mm 2 m/s 707 mmHg 95%
21:00 +20°C° 7.2 mm 1 m/s 708 mmHg 96%
22:00 +19°C° 7.2 mm 1 m/s 708 mmHg 98%
23:00 +19°C° 0.3 mm 1 m/s 708 mmHg 98%
Arată mai mult

Formular de consimțământ

Meteoprog și furnizorii noștri de servicii pot stoca și accesa date personale, precum cookies, identificatori de dispozitiv sau alte tehnologii similare pe dispozitivul dumneavoastră și procesa astfel de date pentru a personaliza conținutul și reclamele, dar și pentru a oferi caracteristici de social media și pentru a analiza traficul.

  • Stocarea și/sau accesarea informațiilor pe dispozitivul dumneavoastră

    Cookies, identificatori de dispozitiv sau alte informații pot fi stocate sau accesate pe dispozitiv în scopurile indicate mai sus.

  • Reclame și conținut personalizat, evaluarea reclamelor și a conținutului, informații despre audiențe și dezvoltarea produselor

    Reclamele și conținutul pot fi personalizate pe baza unui profil. Pot fi adăugate date suplimentare pentru a personaliza mai bine reclamele și conținutul. Performanța reclamelor și conținutului poate fi măsurată. Pot fi obținute informații despre utilizatorii care au văzut reclamele și conținutul. Aceste date pot fi utilizate pentru a dezvolta sau îmbunătăți experiența utilizatorilor, sistemele și software-ul.

Dând clic pe ‘Sunt de acord’, permiteți utilizarea cookie-urilor menționate, a identificatorilor de dispozitiv, balizelor web sau altor tehnologii similare. Setările pot fi modificate din browser-ul dispozitivului dumneavoastră.

În anumite scopuri, interesele legitime pot prima asupra consimțământului. Puteți citi mai multe informații în acest sens în Politica privind Confidențialitatea Datelor și Cookie.